EN

Hourly Weather Ladnowko

Today, 29 July, Thursday

Time Temperature Precipitation Wind Pressure Humidity
00:00 +20°C° 0 mm 1 mps 749 mmHg 93%
01:00 +19°C° 0 mm 2 mps 749 mmHg 92%
02:00 +18°C° 0 mm 2 mps 749 mmHg 93%
03:00 +18°C° 0 mm 2 mps 749 mmHg 94%
04:00 +17°C° 0 mm 3 mps 749 mmHg 95%
05:00 +18°C° 0 mm 3 mps 749 mmHg 88%
06:00 +19°C° 0 mm 4 mps 749 mmHg 82%
07:00 +20°C° 0 mm 4 mps 749 mmHg 76%
08:00 +22°C° 0 mm 5 mps 749 mmHg 68%
09:00 +23°C° 0 mm 5 mps 749 mmHg 61%
10:00 +26°C° 0 mm 6 mps 749 mmHg 54%
11:00 +26°C° 0 mm 6 mps 749 mmHg 54%
12:00 +25°C° 0 mm 5 mps 748 mmHg 54%
13:00 +25°C° 0 mm 5 mps 748 mmHg 54%
14:00 +25°C° 0 mm 5 mps 748 mmHg 52%
15:00 +25°C° 0 mm 5 mps 748 mmHg 49%
16:00 +26°C° 0 mm 4 mps 748 mmHg 47%
17:00 +25°C° 0 mm 4 mps 748 mmHg 48%
18:00 +22°C° 0 mm 4 mps 748 mmHg 50%
19:00 +21°C° 0 mm 4 mps 748 mmHg 52%
20:00 +20°C° 0 mm 4 mps 748 mmHg 55%
21:00 +19°C° 0 mm 4 mps 748 mmHg 59%
22:00 +18°C° 0 mm 3 mps 748 mmHg 62%
23:00 +17°C° 0 mm 3 mps 748 mmHg 65%

Tomorrow, 30 July, Friday

Time Temperature Precipitation Wind Pressure Humidity
00:00 +16°C° 0 mm 3 mps 748 mmHg 68%
01:00 +14°C° 0 mm 3 mps 748 mmHg 71%
02:00 +16°C° 0 mm 3 mps 748 mmHg 70%
03:00 +16°C° 0 mm 3 mps 748 mmHg 69%
04:00 +16°C° 0 mm 3 mps 748 mmHg 68%
05:00 +17°C° 0 mm 3 mps 748 mmHg 65%
06:00 +18°C° 0 mm 4 mps 748 mmHg 63%
07:00 +19°C° 0 mm 4 mps 748 mmHg 60%
08:00 +20°C° 0 mm 5 mps 748 mmHg 55%
09:00 +21°C° 0 mm 6 mps 748 mmHg 49%
10:00 +23°C° 0 mm 7 mps 748 mmHg 44%
11:00 +23°C° 0 mm 7 mps 748 mmHg 44%
12:00 +23°C° 0 mm 6 mps 747 mmHg 44%
13:00 +24°C° 0 mm 6 mps 747 mmHg 45%
14:00 +24°C° 0 mm 6 mps 747 mmHg 43%
15:00 +26°C° 0 mm 6 mps 747 mmHg 41%
16:00 +27°C° 0 mm 6 mps 746 mmHg 39%
17:00 +25°C° 0 mm 5 mps 746 mmHg 44%
18:00 +22°C° 0 mm 4 mps 746 mmHg 50%
19:00 +21°C° 0 mm 3 mps 746 mmHg 56%
20:00 +20°C° 0 mm 2 mps 746 mmHg 56%
21:00 +19°C° 0 mm 2 mps 747 mmHg 57%
22:00 +18°C° 0 mm 2 mps 747 mmHg 57%
23:00 +17°C° 0 mm 2 mps 747 mmHg 59%

Day after tomorrow, 31 July, Saturday

Time Temperature Precipitation Wind Pressure Humidity
00:00 +18°C° 0 mm 1 mps 747 mmHg 60%
01:00 +16°C° 0 mm 1 mps 747 mmHg 61%
02:00 +16°C° 0 mm 2 mps 746 mmHg 62%
03:00 +16°C° 0 mm 2 mps 746 mmHg 63%
04:00 +16°C° 0 mm 2 mps 746 mmHg 64%
05:00 +17°C° 0 mm 3 mps 746 mmHg 62%
06:00 +19°C° 0 mm 3 mps 746 mmHg 60%
07:00 +20°C° 0 mm 3 mps 746 mmHg 59%
08:00 +22°C° 0 mm 4 mps 746 mmHg 56%
09:00 +25°C° 0 mm 5 mps 746 mmHg 53%
10:00 +26°C° 0 mm 5 mps 745 mmHg 50%
11:00 +27°C° 0 mm 5 mps 745 mmHg 51%
12:00 +27°C° 0 mm 6 mps 745 mmHg 52%
13:00 +27°C° 0 mm 6 mps 745 mmHg 53%
14:00 +27°C° 0 mm 6 mps 745 mmHg 47%
15:00 +28°C° 0 mm 6 mps 744 mmHg 42%
16:00 +28°C° 0 mm 6 mps 744 mmHg 37%
17:00 +27°C° 0 mm 6 mps 745 mmHg 41%
18:00 +25°C° 0 mm 5 mps 745 mmHg 46%
19:00 +22°C° 0 mm 5 mps 745 mmHg 50%
20:00 +20°C° 0 mm 4 mps 746 mmHg 54%
21:00 +19°C° 0 mm 3 mps 746 mmHg 58%
22:00 +17°C° 0 mm 3 mps 746 mmHg 62%
23:00 +17°C° 0 mm 3 mps 746 mmHg 64%

1 August, Sunday

Time Temperature Precipitation Wind Pressure Humidity
00:00 +16°C° 0 mm 3 mps 746 mmHg 66%
01:00 +15°C° 0 mm 4 mps 747 mmHg 69%
02:00 +14°C° 0 mm 4 mps 747 mmHg 71%
03:00 +14°C° 0 mm 4 mps 747 mmHg 73%
04:00 +14°C° 0 mm 4 mps 747 mmHg 75%
05:00 +15°C° 0 mm 4 mps 747 mmHg 74%
06:00 +17°C° 0 mm 4 mps 747 mmHg 72%
07:00 +18°C° 0 mm 4 mps 747 mmHg 71%
08:00 +19°C° 0 mm 4 mps 748 mmHg 66%
09:00 +21°C° 0 mm 5 mps 748 mmHg 60%
10:00 +22°C° 0 mm 5 mps 748 mmHg 55%
11:00 +23°C° 0 mm 4 mps 748 mmHg 52%
12:00 +23°C° 0 mm 4 mps 748 mmHg 48%
13:00 +25°C° 0 mm 4 mps 748 mmHg 45%
14:00 +25°C° 0 mm 4 mps 747 mmHg 45%
15:00 +25°C° 0 mm 3 mps 747 mmHg 46%
16:00 +24°C° 0 mm 3 mps 747 mmHg 46%
17:00 +22°C° 0 mm 3 mps 747 mmHg 56%
18:00 +20°C° 0 mm 3 mps 747 mmHg 65%
19:00 +19°C° 0 mm 3 mps 747 mmHg 74%
20:00 +18°C° 0 mm 3 mps 747 mmHg 76%
21:00 +18°C° 0 mm 2 mps 747 mmHg 77%
22:00 +18°C° 0 mm 2 mps 747 mmHg 78%
23:00 +17°C° 0.2 mm 2 mps 746 mmHg 81%

2 August, Monday

Time Temperature Precipitation Wind Pressure Humidity
00:00 +17°C° 0.2 mm 2 mps 746 mmHg 83%
01:00 +16°C° 0.2 mm 2 mps 746 mmHg 85%
02:00 +16°C° 0.6 mm 2 mps 746 mmHg 87%
03:00 +16°C° 0.6 mm 2 mps 746 mmHg 90%
04:00 +16°C° 0.6 mm 2 mps 746 mmHg 92%
05:00 +17°C° 0 mm 3 mps 746 mmHg 88%
06:00 +17°C° 0 mm 3 mps 746 mmHg 84%
07:00 +18°C° 0 mm 4 mps 746 mmHg 81%
08:00 +19°C° 0.1 mm 5 mps 746 mmHg 73%
09:00 +21°C° 0.1 mm 5 mps 746 mmHg 65%
10:00 +22°C° 0.1 mm 6 mps 746 mmHg 58%
11:00 +23°C° 0.4 mm 6 mps 746 mmHg 53%
12:00 +23°C° 0.4 mm 7 mps 746 mmHg 49%
13:00 +23°C° 0.4 mm 7 mps 746 mmHg 44%
14:00 +23°C° 0 mm 7 mps 746 mmHg 41%
15:00 +23°C° 0 mm 7 mps 746 mmHg 38%
16:00 +24°C° 0 mm 6 mps 747 mmHg 35%
17:00 +22°C° 0 mm 6 mps 747 mmHg 41%
18:00 +21°C° 0 mm 5 mps 747 mmHg 47%
19:00 +19°C° 0 mm 5 mps 747 mmHg 53%
20:00 +18°C° 0 mm 4 mps 748 mmHg 58%
21:00 +17°C° 0 mm 4 mps 748 mmHg 64%
22:00 +14°C° 0 mm 3 mps 748 mmHg 69%
23:00 +14°C° 0 mm 3 mps 748 mmHg 72%

3 August, Tuesday

Time Temperature Precipitation Wind Pressure Humidity
00:00 +13°C° 0 mm 4 mps 749 mmHg 75%
01:00 +13°C° 0 mm 4 mps 749 mmHg 77%
02:00 +13°C° 0 mm 4 mps 749 mmHg 80%
03:00 +12°C° 0 mm 4 mps 749 mmHg 82%
04:00 +12°C° 0 mm 4 mps 749 mmHg 85%
05:00 +13°C° 0 mm 5 mps 750 mmHg 80%
06:00 +14°C° 0 mm 5 mps 750 mmHg 75%
07:00 +16°C° 0 mm 6 mps 750 mmHg 70%
08:00 +17°C° 0 mm 6 mps 750 mmHg 62%
09:00 +20°C° 0 mm 6 mps 750 mmHg 55%
10:00 +21°C° 0 mm 6 mps 750 mmHg 47%
11:00 +22°C° 0 mm 5 mps 750 mmHg 44%
12:00 +23°C° 0 mm 5 mps 750 mmHg 40%
13:00 +25°C° 0 mm 5 mps 750 mmHg 37%
14:00 +25°C° 0 mm 4 mps 750 mmHg 37%
15:00 +25°C° 0 mm 4 mps 750 mmHg 37%
16:00 +25°C° 0 mm 3 mps 750 mmHg 37%
17:00 +22°C° 0.1 mm 4 mps 749 mmHg 48%
18:00 +20°C° 0.1 mm 4 mps 749 mmHg 58%
19:00 +19°C° 0.1 mm 5 mps 749 mmHg 68%
20:00 +18°C° 1.1 mm 4 mps 749 mmHg 77%
21:00 +17°C° 1.1 mm 4 mps 749 mmHg 86%
22:00 +16°C° 1.1 mm 3 mps 749 mmHg 95%
23:00 +14°C° 0.5 mm 4 mps 749 mmHg 95%
Show more